Regional Weather Roundup
Issued by NWS Burlington, VT

Home | Current Version | Previous Version | Text Only | Print | Product List | Glossary On
Versions: 1 2 3 4 5 6 7 8 9 10 11 12 13 14 15 16 17 18 19 20 21 22 23 24 25 26 27 28 29 30 31 32 33 34 35 36 37 38 39 40 41 42 43 44 45 46 47 48 49 50
000
ASUS41 KBTV 081310
RWRBTV
VERMONT REGIONAL WEATHER ROUNDUP
NATIONAL WEATHER SERVICE BURLINGTON VT
800 AM EST THU DEC 08 2016

NOTE: "FAIR" INDICATES FEW OR NO CLOUDS BELOW 12,000 FEET WITH NO
SIGNIFICANT WEATHER AND/OR OBSTRUCTIONS TO VISIBILITY.

* THESE REPORTS ARE NOT UNDER NWS QUALITY CONTROL AND/OR DO NOT
  REPORT WEATHER SUCH AS PRECIPITATION AND FOG.

VTZ001>019-081400-
_____VERMONT_____


CITY           SKY/WX    TMP DP  RH WIND       PRES   REMARKS
BURLINGTON     CLOUDY    35  27  72 S7        29.83F WCI  29
MONTPELIER     CLOUDY    29  25  85 S8        29.84F WCI  21
MORRISVILLE    CLOUDY    31  26  82 S6        29.82F WCI  25
ST. JOHNSBURY*   N/A     29  28  96 MISG      29.82F
LYNDONVILLE*   CLOUDY   N/A N/A N/A E3        29.82F FOG
MIDDLEBURY*    MOCLDY    35  27  72 S8        29.86S WCI  28
RUTLAND*       MOCLDY    33  25  72 SE5       29.86F WCI  29
SPRINGFIELD    FOG       27  26  96 CALM      29.88F VSB 1/4
HIGHGATE*      FAIR      34  29  83 S6        29.81F WCI  29
NEWPORT*       CLOUDY    31  27  86 S3        29.80F
BENNINGTON     CLOUDY    28  26  92 CALM      29.89F FOG

_____LAKE CHAMPLAIN_____


CITY           SKY/WX    TMP DP  RH WIND       PRES   REMARKS
BURTON ISLAND*   N/A     37  32  81 SE16        N/A  WCI  28
COLCHESTER RF*   N/A     37  32  81 SW15        N/A  WCI  28
DIAMOND ISL*     N/A     36  30  80 SE9         N/A  WCI  29

$$

NYZ007-026>031-035-052-083-087-081400-
_____NORTHERN NEW YORK_____


CITY           SKY/WX    TMP DP  RH WIND       PRES   REMARKS
PLATTSBURGH    CLOUDY    36  30  79 S6        29.82F WCI  31
SARANAC LAKE   SNOW      29  26  89 SW9       29.76S VSB 1/2 WCI  20
MASSENA        CLOUDY    32  27  81 SW7       29.82F WCI  26
OGDENSBURG*    CLEAR     32  27  80 SW6       29.82S WCI  26
POTSDAM*       PTCLDY    34  32  93 SW10      29.81S WCI  26
WATERTOWN      CLOUDY    34  31  88 W9        29.85F WCI  27
FT DRUM        LGT SNOW  32  32 100 SW13      29.82S VSB 1   WCI  22
ALBANY         FOG       32  30  92 S7        29.92F VSB 3/4 WCI  26
GLENS FALLS    CLOUDY    30  27  88 CALM      29.90F FOG

$$
NHZ002-005-011-081400-
_____NEW HAMPSHIRE_____


CITY           SKY/WX    TMP DP  RH WIND       PRES   REMARKS
LEBANON        CLOUDY    26  25  96 S3        29.87S FOG
KEENE          CLOUDY    27  27 100 S3        29.91F FOG
MT WASHINGTON  FOG       12  12 100 W38         N/A  VSB 0   WCI -11
PLYMOUTH       FOG       27  26  99 CALM      29.87F VSB<1/4
WHITEFIELD     CLOUDY    23  20  88 CALM      29.82F

$$

_____REGIONAL QUEBEC LOCATIONS_____


CITY           SKY/WX    TMP DP  RH WIND       PRES   REMARKS
MONTREAL       MOCLDY    34  27  75 SW17      29.78F WCI  23
QUEBEC CITY    CLOUDY    28  25  86 W2        29.75F
SHERBROOKE     MOCLDY    32  27  80 S3        29.77F

_____REGIONAL ONTARIO LOCATIONS_____


CITY           SKY/WX    TMP DP  RH WIND       PRES   REMARKS
OTTAWA         FLURRIES  32  25  74 SW12G17   29.78S WCI  23

______KEY______
VSB  - VISIBILITY IN MILES
WCI  - WIND CHILL INDEX
HX   - HEAT INDEX
$$
NNNN



USA.gov is the U.S. government's official web portal to all federal, state and local government web resources and services.